sat.trackr.live / text

‹ back to catalog

STARLINK-11449 [DTC]

NORAD 63012 · 2025-032H

PAYLOAD ACTIVE UNKNOWN

§ Identity

Operator
Country
US
Launch date
2025-02-15
Launch site
AFETR
Launch vehicle
Mass (kg)
RCS (m²)

Purposes: comms

External: N2YO · Heavens-Above · Gunter

§ Orbital elements

Epoch: 2026-05-24T23:36:58.870080Z

Period
91.67 min
Inclination
42.9997°
Eccentricity
0.0001609
Mean motion
15.70831606 rev/d
Perigee alt
355.4 km
Apogee alt
357.6 km
Semi-major
6,734.7 km
B*
1.6193e-3
RAAN
95.3980°
Arg perigee
262.8498°
Mean anomaly
97.2186°
Rev number
7,421

§ Raw data

STARLINK-11449 [DTC]1 63012U 25032H   26144.98401470  .00212653  00000+0  16193-2 0  99942 63012  42.9997  95.3980 0001609 262.8498  97.2186 15.70831606 74217

JSON: /api/v1/satellites/63012 · /tle

For live sub-satellite position, see the globe view (requires WebGL).

§ Visibility from observer

Set your observer location to see the next 7 days of passes ≥ 10°. The values pass through the URL so the page stays shareable.

No JS? Fill the form by hand. The geolocation button needs JavaScript.